Time,TemperatureF,DewpointF,PressureIn,WindDirection,WindDirectionDegrees,WindSpeedMPH,WindSpeedGustMPH,Humidity,HourlyPrecipIn,Conditions,Clouds,dailyrainin,SolarRadiationWatts/m^2,SoftwareType,DateUTC
2013-01-02 00:00:00,19.0,12.0,-100.00,West,270,2.0,-999.0,74,-99.99,,,-99.99,0.000000,,2013-01-02 05:00:00,
2013-01-02 00:43:00,19.0,12.0,-100.00,West,270,2.0,-999.0,74,-99.99,,,-99.99,0.000000,,2013-01-02 05:43:00,
2013-01-02 00:53:00,19.0,12.0,-100.00,West,270,2.0,-999.0,74,-99.99,,,-99.99,0.000000,,2013-01-02 05:53:00,
2013-01-02 01:00:00,16.0,11.0,-100.00,WSW,247,0.0,-999.0,79,-99.99,,,-99.99,0.000000,,2013-01-02 06:00:00,
2013-01-02 01:33:00,16.0,11.0,-100.00,WSW,247,0.0,-999.0,79,-99.99,,,-99.99,0.000000,,2013-01-02 06:33:00,
2013-01-02 01:42:00,16.0,11.0,-100.00,WSW,247,0.0,-999.0,79,-99.99,,,-99.99,0.000000,,2013-01-02 06:42:00,
2013-01-02 01:53:00,16.0,11.0,-100.00,WSW,247,0.0,-999.0,79,-99.99,,,-99.99,0.000000,,2013-01-02 06:53:00,
2013-01-02 02:00:00,16.0,12.0,-100.00,SW,225,2.0,-999.0,85,-99.99,,,-99.99,0.000000,,2013-01-02 07:00:00,
2013-01-02 02:42:00,16.0,12.0,-100.00,SW,225,2.0,-999.0,85,-99.99,,,-99.99,0.000000,,2013-01-02 07:42:00,
2013-01-02 02:52:00,16.0,12.0,-100.00,SW,225,2.0,-999.0,85,-99.99,,,-99.99,0.000000,,2013-01-02 07:52:00,
2013-01-02 03:00:00,16.0,13.0,-100.00,SW,225,3.0,-999.0,86,-99.99,,,-99.99,0.000000,,2013-01-02 08:00:00,
2013-01-02 03:32:00,16.0,13.0,-100.00,SW,225,3.0,-999.0,86,-99.99,,,-99.99,0.000000,,2013-01-02 08:32:00,
2013-01-02 03:42:00,16.0,13.0,-100.00,SW,225,3.0,-999.0,86,-99.99,,,-99.99,0.000000,,2013-01-02 08:42:00,
2013-01-02 03:53:00,16.0,13.0,-100.00,SW,225,3.0,-999.0,86,-99.99,,,-99.99,0.000000,,2013-01-02 08:53:00,
2013-01-02 04:00:00,16.0,13.0,-100.00,SW,225,3.0,-999.0,85,-99.99,,,-99.99,0.000000,,2013-01-02 09:00:00,
2013-01-02 04:32:00,16.0,13.0,-100.00,SW,225,3.0,-999.0,85,-99.99,,,-99.99,0.000000,,2013-01-02 09:32:00,
2013-01-02 04:43:00,16.0,13.0,-100.00,SW,225,3.0,-999.0,85,-99.99,,,-99.99,0.000000,,2013-01-02 09:43:00,
2013-01-02 04:53:00,16.0,13.0,-100.00,SW,225,3.0,-999.0,85,-99.99,,,-99.99,0.000000,,2013-01-02 09:53:00,
2013-01-02 05:00:00,16.0,12.0,-100.00,SW,225,3.0,-999.0,84,-99.99,,,-99.99,0.000000,,2013-01-02 10:00:00,
2013-01-02 05:32:00,16.0,12.0,-100.00,SW,225,3.0,-999.0,84,-99.99,,,-99.99,0.000000,,2013-01-02 10:32:00,
2013-01-02 05:43:00,16.0,12.0,-100.00,SW,225,3.0,-999.0,84,-99.99,,,-99.99,0.000000,,2013-01-02 10:43:00,
2013-01-02 05:53:00,16.0,12.0,-100.00,SW,225,3.0,-999.0,84,-99.99,,,-99.99,0.000000,,2013-01-02 10:53:00,
2013-01-02 06:00:00,16.0,12.0,-100.00,SW,225,3.0,-999.0,84,-99.99,,,-99.99,0.000000,,2013-01-02 11:00:00,
2013-01-02 06:33:00,16.0,12.0,-100.00,SW,225,3.0,-999.0,84,-99.99,,,-99.99,0.000000,,2013-01-02 11:33:00,
2013-01-02 06:43:00,16.0,12.0,-100.00,SW,225,3.0,-999.0,84,-99.99,,,-99.99,0.000000,,2013-01-02 11:43:00,
2013-01-02 06:53:00,16.0,12.0,-100.00,SW,225,3.0,-999.0,84,-99.99,,,-99.99,0.000000,,2013-01-02 11:53:00,
2013-01-02 07:00:00,16.0,12.0,-100.00,SW,225,5.0,-999.0,84,-99.99,,,-99.99,0.000000,,2013-01-02 12:00:00,
2013-01-02 07:33:00,16.0,12.0,-100.00,SW,225,5.0,-999.0,84,-99.99,,,-99.99,0.000000,,2013-01-02 12:33:00,
2013-01-02 07:43:00,16.0,12.0,-100.00,SW,225,5.0,-999.0,84,-99.99,,,-99.99,0.000000,,2013-01-02 12:43:00,
2013-01-02 07:53:00,16.0,12.0,-100.00,SW,225,5.0,-999.0,84,-99.99,,,-99.99,0.000000,,2013-01-02 12:53:00,
2013-01-02 08:00:00,16.0,12.0,-100.00,SW,225,2.0,-999.0,84,-99.99,,,-99.99,0.000000,,2013-01-02 13:00:00,
2013-01-02 08:43:00,16.0,12.0,-100.00,SW,225,2.0,-999.0,84,-99.99,,,-99.99,0.000000,,2013-01-02 13:43:00,
2013-01-02 08:53:00,16.0,12.0,-100.00,SW,225,2.0,-999.0,84,-99.99,,,-99.99,0.000000,,2013-01-02 13:53:00,
2013-01-02 09:00:00,16.0,13.0,-100.00,SW,225,3.0,-999.0,85,-99.99,,,-99.99,9.280000,,2013-01-02 14:00:00,
2013-01-02 09:43:00,16.0,13.0,-100.00,SW,225,3.0,-999.0,85,-99.99,,,-99.99,9.280000,,2013-01-02 14:43:00,
2013-01-02 09:53:00,16.0,13.0,-100.00,SW,225,3.0,-999.0,85,-99.99,,,-99.99,9.280000,,2013-01-02 14:53:00,
2013-01-02 10:00:00,16.0,13.0,-100.00,SW,225,4.0,-999.0,84,-99.99,,,-99.99,42.919998,,2013-01-02 15:00:00,
2013-01-02 10:33:00,16.0,13.0,-100.00,SW,225,4.0,-999.0,84,-99.99,,,-99.99,42.919998,,2013-01-02 15:33:00,
2013-01-02 10:43:00,16.0,13.0,-100.00,SW,225,4.0,-999.0,84,-99.99,,,-99.99,42.919998,,2013-01-02 15:43:00,
2013-01-02 10:53:00,16.0,13.0,-100.00,SW,225,4.0,-999.0,84,-99.99,,,-99.99,42.919998,,2013-01-02 15:53:00,
2013-01-02 11:00:00,17.0,13.0,-100.00,SW,225,5.0,-999.0,84,-99.99,,,-99.99,78.879997,,2013-01-02 16:00:00,
2013-01-02 11:33:00,17.0,13.0,-100.00,SW,225,5.0,-999.0,84,-99.99,,,-99.99,78.879997,,2013-01-02 16:33:00,
2013-01-02 11:43:00,17.0,13.0,-100.00,SW,225,5.0,-999.0,84,-99.99,,,-99.99,78.879997,,2013-01-02 16:43:00,
2013-01-02 11:54:00,17.0,13.0,-100.00,SW,225,5.0,-999.0,84,-99.99,,,-99.99,78.879997,,2013-01-02 16:54:00,
2013-01-02 12:00:00,18.0,14.0,-100.00,SW,225,4.0,-999.0,84,-99.99,,,-99.99,114.839996,,2013-01-02 17:00:00,
2013-01-02 12:43:00,18.0,14.0,-100.00,SW,225,4.0,-999.0,84,-99.99,,,-99.99,114.839996,,2013-01-02 17:43:00,
2013-01-02 12:54:00,18.0,14.0,-100.00,SW,225,4.0,-999.0,84,-99.99,,,-99.99,114.839996,,2013-01-02 17:54:00,
2013-01-02 13:00:00,20.0,16.0,-100.00,SW,225,5.0,-999.0,84,-99.99,,,-99.99,133.399994,,2013-01-02 18:00:00,
2013-01-02 13:43:00,20.0,16.0,-100.00,SW,225,5.0,-999.0,84,-99.99,,,-99.99,133.399994,,2013-01-02 18:43:00,
2013-01-02 13:53:00,20.0,16.0,-100.00,SW,225,5.0,-999.0,84,-99.99,,,-99.99,133.399994,,2013-01-02 18:53:00,
2013-01-02 14:00:00,21.0,17.0,-100.00,SW,225,5.0,-999.0,83,-99.99,,,-99.99,150.800003,,2013-01-02 19:00:00,
2013-01-02 14:33:00,21.0,17.0,-100.00,SW,225,5.0,-999.0,83,-99.99,,,-99.99,150.800003,,2013-01-02 19:33:00,
2013-01-02 14:43:00,21.0,17.0,-100.00,SW,225,5.0,-999.0,83,-99.99,,,-99.99,150.800003,,2013-01-02 19:43:00,
2013-01-02 14:53:00,21.0,17.0,-100.00,SW,225,5.0,-999.0,83,-99.99,,,-99.99,150.800003,,2013-01-02 19:53:00,
2013-01-02 15:00:00,22.0,17.0,-100.00,SW,225,4.0,-999.0,80,-99.99,,,-99.99,133.399994,,2013-01-02 20:00:00,
2013-01-02 15:42:00,22.0,17.0,-100.00,SW,225,4.0,-999.0,80,-99.99,,,-99.99,133.399994,,2013-01-02 20:42:00,
2013-01-02 15:53:00,22.0,17.0,-100.00,SW,225,4.0,-999.0,80,-99.99,,,-99.99,133.399994,,2013-01-02 20:53:00,
2013-01-02 16:00:00,23.0,17.0,-100.00,SW,225,4.0,-999.0,77,-99.99,,,-99.99,133.399994,,2013-01-02 21:00:00,
2013-01-02 16:43:00,23.0,17.0,-100.00,SW,225,4.0,-999.0,77,-99.99,,,-99.99,133.399994,,2013-01-02 21:43:00,
2013-01-02 16:53:00,23.0,17.0,-100.00,SW,225,4.0,-999.0,77,-99.99,,,-99.99,133.399994,,2013-01-02 21:53:00,
2013-01-02 17:00:00,23.0,15.0,-100.00,SSW,202,3.0,-999.0,72,-99.99,,,-99.99,60.320000,,2013-01-02 22:00:00,
2013-01-02 17:43:00,23.0,15.0,-100.00,SSW,202,3.0,-999.0,72,-99.99,,,-99.99,60.320000,,2013-01-02 22:43:00,
2013-01-02 17:53:00,23.0,15.0,-100.00,SSW,202,3.0,-999.0,72,-99.99,,,-99.99,60.320000,,2013-01-02 22:53:00,
2013-01-02 18:00:00,20.0,14.0,-100.00,SSW,202,1.0,-999.0,75,-99.99,,,-99.99,4.640000,,2013-01-02 23:00:00,
2013-01-02 18:43:00,20.0,14.0,-100.00,SSW,202,1.0,-999.0,75,-99.99,,,-99.99,4.640000,,2013-01-02 23:43:00,
2013-01-02 18:53:00,20.0,14.0,-100.00,SSW,202,1.0,-999.0,75,-99.99,,,-99.99,4.640000,,2013-01-02 23:53:00,
2013-01-02 19:00:00,18.0,13.0,-100.00,SSW,202,1.0,-999.0,79,-99.99,,,-99.99,0.000000,,2013-01-03 00:00:00,
2013-01-02 19:42:00,18.0,13.0,-100.00,SSW,202,1.0,-999.0,79,-99.99,,,-99.99,0.000000,,2013-01-03 00:42:00,
2013-01-02 19:53:00,18.0,13.0,-100.00,SSW,202,1.0,-999.0,79,-99.99,,,-99.99,0.000000,,2013-01-03 00:53:00,
2013-01-02 20:00:00,16.0,12.0,-100.00,SSW,202,0.0,-999.0,82,-99.99,,,-99.99,0.000000,,2013-01-03 01:00:00,
2013-01-02 20:43:00,16.0,12.0,-100.00,SSW,202,0.0,-999.0,82,-99.99,,,-99.99,0.000000,,2013-01-03 01:43:00,
2013-01-02 20:53:00,16.0,12.0,-100.00,SSW,202,0.0,-999.0,82,-99.99,,,-99.99,0.000000,,2013-01-03 01:53:00,
2013-01-02 21:00:00,15.0,12.0,-100.00,South,180,0.0,-999.0,85,-99.99,,,-99.99,0.000000,,2013-01-03 02:00:00,
2013-01-02 22:00:00,15.0,11.0,-100.00,South,180,1.0,-999.0,83,-99.99,,,-99.99,0.000000,,2013-01-03 03:00:00,
2013-01-02 22:47:00,15.0,11.0,-100.00,South,180,1.0,-999.0,83,-99.99,,,-99.99,0.000000,,2013-01-03 03:47:00,
2013-01-02 22:53:00,15.0,11.0,-100.00,South,180,1.0,-999.0,83,-99.99,,,-99.99,0.000000,,2013-01-03 03:53:00,
2013-01-02 23:00:00,14.0,9.0,-100.00,South,180,1.0,-999.0,79,-99.99,,,-99.99,0.000000,,2013-01-03 04:00:00,
2013-01-02 23:33:00,14.0,9.0,-100.00,South,180,1.0,-999.0,79,-99.99,,,-99.99,0.000000,,2013-01-03 04:33:00,
2013-01-02 23:43:00,14.0,9.0,-100.00,South,180,1.0,-999.0,79,-99.99,,,-99.99,0.000000,,2013-01-03 04:43:00,
2013-01-02 23:53:00,14.0,9.0,-100.00,South,180,1.0,-999.0,79,-99.99,,,-99.99,0.000000,,2013-01-03 04:53:00,